Regional Weather Roundup
Issued by NWS Goodland, KS

Home | Current Version | Previous Version | Graphics & Text | Print | Product List | Glossary On
Versions: 1 2 3 4 5 6 7 8 9 10 11 12 13 14 15 16 17 18 19 20 21 22 23 24 25 26 27 28 29 30 31 32 33 34 35 36 37 38 39 40 41 42 43 44 45 46 47 48 49 50
000
ASUS43 KGLD 291208
RWRGLD

GOODLAND FORECAST AREA HOURLY WEATHER ROUNDUP
NATIONAL WEATHER SERVICE GOODLAND KS
600 AM MDT TUE JUL 29 2014

...OFFICIAL OBSERVATIONS...

CITY           SKY/WX    TMP DP  RH WIND       PRES   REMARKS
GOODLAND KS    CLEAR     59  58  96 S7        30.20S
HILL CITY KS   CLEAR     60  55  83 E7        30.20S
IMPERIAL NEB   CLEAR     58  55  90 E8        30.21R
MCCOOK NEB     CLEAR     58  55  90 E7        30.21R
AKRON CO       CLEAR     62  57  83 S5        30.22S
BURLINGTON CO  PTCLDY    59  57  93 S8        30.21F
LIMON CO       FOG       58  58 100 CALM      30.26S VSB 1/4
$$

...UNOFFICIAL OBSERVATIONS...

CITY           SKY/WX    TMP DP  RH WIND       PRES   REMARKS
COLBY KS       CLEAR     61  61 100 E6        30.21R
LENORA KS        N/A     58  32  37 MISG        N/A
NORTON KS      CLEAR     59  52  77 E6        30.21R
OBERLIN KS     FAIR      59  54  82 SE7       30.21
ST FRANCIS KS  CLEAR     61  55  82 S8        30.19R
WAKEENEY KS      N/A     61  54  76 MISG        N/A
KIT CARSON CO    N/A     64  60  88 N10         N/A
YUMA CO          N/A     59  56  89 S5          N/A
$$


USA.gov is the U.S. government's official web portal to all federal, state and local government web resources and services.